Location: Newark
(25.0000°N, 73.5000°E)
Time: 03:43:00
(UTC+00:00)

RS-15 - Pass Details

Date: 27 February 2020
Orbit: 1898 x 2146 km, 64.8° (Epoch: 04 April)

Event Time Altitude Azimuth Distance (km) Brightness Sun altitude
Rises 14:42:16 0° 226° (SW) 5,391 11.0 -22.4°
Reaches altitude 10° 14:45:52 10° 233° (SW) 4,363 10.5 -23.2°
Maximum altitude 14:56:12 43° 302° (WNW) 2,499 8.9 -25.6°
Drops below altitude 10° 15:06:25 10° 11° (NNE) 4,286 9.7 -27.9°
Sets 15:09:58 0° 19° (NNE) 5,288 10.2 -28.7°
